Regional Weather Roundup
Issued by NWS

Home | Current Version | Previous Version | Graphics & Text | Print | Product List | Glossary On
Versions: 1 2 3 4 5 6 7 8 9 10 11 12 13 14 15 16 17 18 19 20 21 22 23 24 25 26 27
000
ASUS45 KSLC 101110
RWRUT

UTAH REGIONAL WEATHER ROUNDUP
NATIONAL WEATHER SERVICE SALT LAKE CITY UT
400 AM MST SUN DEC 10 2017

UTZ001>011-023>025-101200-

NORTHERN UTAH

CITY           SKY/WX    TMP DP  RH WIND       PRES   REMARKS
BRIGHAM CITY   PTCLDY    19  14  82 CALM      30.66F
HILL AFB       PTCLDY    21  12  69 E17       30.62F WCI   7
LOGAN          CLOUDY    20  14  77 VRB3      30.68S
OGDEN          PTCLDY    21  14  74 S6        30.63F WCI  13
SALT LAKE CITY PTCLDY    23  19  85 SE6       30.64F WCI  16
TOOELE VALLEY  PTCLDY    16  12  86 S3        30.65S
WENDOVER       MOCLDY    13   8  81 SW3       30.66S
HEBER CITY       N/A      9   5  85 E3        30.61S
WEST JORDAN    PTCLDY    20  17  87 CALM      30.64S

$$

UTZ011>015-024>027-101200-

CENTRAL/NORTHEAST UTAH

CITY           SKY/WX    TMP DP  RH WIND       PRES   REMARKS
PROVO AIRPORT  PTCLDY    15  13  91 CALM      30.65S
MOAB/CANYONLAN MOCLDY    15   4  61 CALM      30.56F
DELTA          CLOUDY    12   9  85 NE3       30.62S
PRICE          PTCLDY    20  -4  34 NE6       30.53F WCI  12
ROOSEVELT      CLOUDY    10   3  72 W6        30.62S WCI   1
VERNAL         CLOUDY    12   4  70 W3        30.60S

$$

UTZ013>016-019>022-027-101200-

SOUTHERN UTAH

CITY           SKY/WX    TMP DP  RH WIND       PRES   REMARKS
BRYCE CANYON   PTCLDY    11  -6  46 W12       30.58S WCI  -3
CEDAR CITY     PTCLDY    12   4  70 NE7       30.56S WCI   1
MILFORD        MOCLDY    11   6  81 SW5       30.60S WCI   3
ST GEORGE      MOSUNNY   34   7  32 S5        30.52S WCI  30
HANKSVILLE     CLOUDY    12   0  57 CALM      30.61S
BLANDING         N/A     31  -5  21 E3        30.58S

$$

REGIONAL REPORTS     COLORADO/ARIZONA

CITY           SKY/WX    TMP DP  RH WIND       PRES   REMARKS
CRAIG, CO      CLOUDY     4  -1  80 CALM      30.58F
GRAND JUNCTION CLOUDY    19   5  54 E7        30.58R WCI  10
RIFLE, CO      CLOUDY    15   6  67 CALM      30.61S
MONTROSE, CO   CLOUDY    15   1  53 S7        30.60S WCI   5
CORTEZ, CO     CLOUDY     7  -5  57 CALM      30.53R
COLORADO CITY    N/A     12  -4  48 SE6       30.52F HAZE    WCI   3
PAGE, AZ       MOCLDY    31  10  41 N3        30.54S
GRAND CANYON   MOCLDY    24  -3  30 NE10      30.52F WCI  14
KINGMAN, AZ    PTCLDY    35   5  28 E8        30.40F WCI  29
FLAGSTAFF, AZ  PTCLDY    19   1  45 SW3       30.49S

$$

REGIONAL REPORTS    NEVADA/IDAHO/WYOMING

CITY           SKY/WX    TMP DP  RH WIND       PRES   REMARKS
LAS VEGAS, NV  CLEAR     44  10  25 S6        30.40F
ELY, NY        PTCLDY     7  -4  60 S13       30.60S WCI  -9
ELKO, NV       MOCLDY    12   9  87 E3        30.61S
POCATELLO, ID  NOT AVBL
BURLEY, ID     FOG       19  16  88 NE5       30.63F VSB 1/4 WCI  12
FORT BRIDGER,    N/A     26   1  33 W12       30.58  WCI  16
EVANSTON, WY   CLOUDY    24   6  46 S5        30.57R WCI  18
ROCK SPRINGS,  CLOUDY    27   5  39 W10       30.52S WCI  17

$$




USA.gov is the U.S. government's official web portal to all federal, state and local government web resources and services.